Powrót do katalogu

ARIANE 1 DEB

LostHEO
NORAD 25824·DEBRIS·🇫🇷 France

Wystrzelony Mar 5, 1984 z Guiana Space Centre

Loading…

Następne Przeloty (najbliższe 24 godziny)

TLE

NieaktualneSource: Space-Track

Epoka: Feb 25, 2026, 07:58 UTC

1 25824U 84023F   26056.33238400 -.00000153  00000-0 -24054-2 0  9998
2 25824   8.2971  42.5449 6792781 156.3785 193.5279  2.56688552251868

Śledź ARIANE 1 DEB w czasie rzeczywistym z AllMySat

Download on the App Store